www.pogodaiklimat.ru

Погода и климат >> Архив погоды >> Австралия >> Квинсленд >> Остров Лоу


ПОГОДА на Острове Лоу

  • Прогноз погоды на Острове Лоу
  • Монитор погоды на Острове Лоу

АРХИВ ПОГОДЫ на Острове Лоу

Время (UTC), дата Ветер
(напр.,м/с)
 
Видим.   Явления Облачность Т
(С)
Тd
(С)
f
(%)
Тe
(С)
Тes
(С)
Комфортность P
(гПа)
Po
(гПа)
Тmin
(С)
Tmax
(С)
R
(мм)
R24
(мм)
S
(см)
11 11.08 ЮВ 6 н/о н/о +21.2 +12.9 59 +23 +23 комфорт 1017.9 1017.4
14 11.08 Ю 4 н/о н/о +20.4 +13.6 65 +23 +23 комфорт 1017.8 1017.3 +26.0
17 11.08 Ю 4 н/о н/о +19.7 +12.9 65 +21 +21 комфорт 1016.6 1016.1
20 11.08 ЮЗ 4 н/о н/о +20.0 +13.9 68 +22 +22 комфорт 1017.3 1016.8
23 11.08 ЮВ 7 н/о н/о +21.5 +13.4 60 +24 +24 комфорт 1019.3 1018.8
02 12.08 ЮВ 8 н/о н/о +24.9 +13.8 50 +27 +27 жарко 1019.2 1018.7 +19.7
05 12.08 ЮВ 8 н/о н/о +24.0 +11.3 45 +25 +25 комфорт 1017.5 1017.0
08 12.08 ЮВ 8 н/о н/о +20.9 +12.1 57 +23 +23 комфорт 1018.3 1017.8
11 12.08 ЮВ 7 н/о н/о +20.8 +13.0 61 +23 +23 комфорт 1020.1 1019.6
14 12.08 Ю 6 н/о н/о +20.4 +11.6 57 +22 +22 комфорт 1019.7 1019.2 +25.4
17 12.08 Ю 4 н/о н/о +19.1 +13.1 68 +20 +20 1018.2 1017.7
20 12.08 Ю 5 н/о н/о +20.0 +13.5 66 +22 +22 комфорт 1019.2 1018.7
23 12.08 ЮВ 7 н/о н/о +21.2 +13.9 63 +24 +24 комфорт 1021.6 1021.1
02 13.08 ЮВ 7 н/о н/о +23.7 +15.7 61 +27 +27 жарко 1020.7 1020.2 +19.0
05 13.08 ЮВ 7 н/о н/о +24.6 +16.3 60 +28 +28 душно 1018.6 1018.1
08 13.08 ЮВ 8 н/о н/о +22.1 +16.1 69 +26 +26 душно 1019.3 1018.8
11 13.08 ЮВ 9 н/о н/о +21.6 +16.8 74 +26 +26 душно 1021.2 1020.7
14 13.08 ЮВ 8 н/о н/о +21.1 +16.5 75 +25 +25 комфорт 1021.3 1020.8 +25.5
17 13.08 ЮВ 8 н/о н/о +21.0 +17.0 78 +25 +25 комфорт 1020.0 1019.5
20 13.08 ЮВ 9 н/о н/о +21.4 +17.2 77 +25 +25 комфорт 1020.5 1020.0
23 13.08 ЮВ 11 н/о н/о +21.8 +16.5 72 +26 +26 душно 1021.8 1021.3
02 14.08 ЮВ 11 н/о н/о +25.0 +16.7 60 +29 +29 душно 1020.9 1020.4 +21.0
05 14.08 ЮВ 10 н/о н/о +24.2 +17.2 65 +28 +28 душно 1018.9 1018.4
08 14.08 ЮВ 10 н/о н/о +21.8 +17.2 75 +26 +26 душно 1019.7 1019.2
11 14.08 ЮВ 10 н/о н/о +21.6 +17.8 79 +26 +26 душно 1021.6 1021.1
14 14.08 ЮВ 7 н/о н/о +21.2 +16.8 76 +25 +25 комфорт 1021.2 1020.7 +25.3
17 14.08 ЮВ 7 н/о н/о +20.9 +16.3 75 +24 +24 комфорт 1019.6 1019.1
20 14.08 Ю 7 н/о н/о +21.2 +16.2 73 +25 +25 комфорт 1020.0 1019.5
23 14.08 ЮВ 8 н/о н/о +21.5 +17.5 78 +26 +26 душно 1022.1 1021.6
02 15.08 ЮВ 7 н/о н/о +22.0 +19.2 84 +27 +27 душно 1021.4 1020.9 +20.9
05 15.08 ЮВ 8 н/о н/о +22.4 +18.8 80 +28 +28 душно 1018.9 1018.4
08 15.08 ЮВ 7 н/о н/о +22.1 +18.5 80 +27 +27 душно 1019.1 1018.6
11 15.08 Ю 6 н/о н/о +22.3 +18.7 80 +28 +28 душно 1020.7 1020.2
14 15.08 Ю 6 н/о н/о +22.4 +18.6 79 +28 +28 душно 1020.6 1020.1 +23.9
17 15.08 ЮВ 6 н/о н/о +22.2 +18.8 81 +28 +28 душно 1019.1 1018.6
20 15.08 Ю 6 н/о н/о +22.1 +18.7 81 +27 +27 душно 1018.9 1018.4
23 15.08 Ю 6 н/о н/о +23.0 +19.0 78 +29 +29 очень
душно
1020.3 1019.8
02 16.08 ЮВ 6 н/о н/о +26.4 +19.8 67 +32 +32 очень
душно
1019.3 1018.8 +21.1
05 16.08 ЮВ 7 н/о н/о +25.8 +19.4 68 +31 +31 очень
душно
1017.1 1016.6
08 16.08 ЮВ 7 н/о н/о +22.8 +19.8 83 +29 +29 очень
душно
1017.9 1017.4
11 16.08 ЮВ 6 н/о н/о +22.3 +19.5 84 +28 +28 душно 1019.3 1018.8
14 16.08 ЮВ 5 н/о н/о +21.6 +20.2 92 +27 +27 душно 1019.0 1018.5 +28.1
17 16.08 ЮВ 7 н/о {туман} н/о +21.2 +19.5 90 +26 +26 душно 1017.2 1016.7
20 16.08 ЮВ 8 н/о н/о +22.0 +19.0 83 +27 +27 душно 1018.3 1017.8
23 16.08 ЮВ 6 н/о н/о +22.7 +18.9 79 +29 +29 очень
душно
1019.7 1019.2
02 17.08 ЮВ 7 н/о н/о +23.9 +19.2 75 +29 +29 душно 1018.5 1018.0 +21.3
05 17.08 В 7 н/о н/о +26.4 +19.0 64 +32 +32 очень
душно
1016.3 1015.8
08 17.08 ЮВ 7 н/о н/о +22.6 +18.2 76 +28 +28 душно 1016.5 1016.0
11 17.08 ЮВ 7 н/о н/о +22.1 +18.7 81 +27 +27 душно 1018.0 1017.5
14 17.08 ЮВ 5 н/о н/о +21.8 +18.0 79 +26 +26 душно 1018.2 1017.7 +26.7
17 17.08 Ю 3 н/о н/о +20.8 +18.2 85 +25 +25 комфорт 1017.6 1017.1
20 17.08 Ю 4 н/о н/о +20.9 +17.5 81 +25 +25 комфорт 1018.0 1017.5
23 17.08 Ю 5 н/о н/о +22.5 +17.8 75 +28 +28 душно 1019.5 1019.0
02 18.08 ЮВ 7 н/о н/о +26.0 +18.2 62 +31 +31 очень
душно
1018.0 1017.5 +20.6
05 18.08 В 5 н/о н/о +27.2 +18.8 60 +32 +32 очень
душно
1015.8 1015.3
08 18.08 ЮВ 5 н/о н/о +23.2 +18.7 76 +29 +29 душно 1016.2 1015.7

 

Местоположение метеостанции Остров Лоу (Квинсленд, Австралия): широта -16.38 долгота 145.57 высота над уровнем моря 4 м.

В архиве по умолчанию представлена погода на Острове Лоу за последнюю неделю. Архивные данные за месяц целиком и за предыдущие месяцы, начиная с января 2011 года, Вы можете получить, выбрав интересующий диапазон дат из раскрывающегося списка и нажав кнопку "Ввод!".


*Определитесь, кто Вы:
робот инопланетянин человек

Внимание! Время в таблицах - всемирное. Для получения местного времени необходимо прибавить поправку, которая равна 10 ч.

Смотрите также архив погоды в соседних городах и на ближайших метеорологических станциях:

Погода в Кэрнсе (Квинсленд, Австралия) (59 км)
Погода на Арлингтон рифе (Квинсленд, Австралия) (70 км)
Погода в Марибе (Квинсленд, Австралия) (78 км)
Погода в Куктауне (Квинсленд, Австралия) (112 км)
Погода в Юг Джонстон (Квинсленд, Австралия) (143 км)
Погода на Мысе Флэттери (Квинсленд, Австралия) (159 км)
Погода в Палмервилле (Квинсленд, Австралия) (166 км)
Погода на Бугенвильском рифе (Квинсленд, Австралия) (192 км)
Погода на Холмс Рифе (Квинсленд, Австралия) (244 км)
Погода в Лусинде (Квинсленд, Австралия) (254 км)

Пояснения к столбцам:

Ветер - указаны скорость ветра в м/с - средняя за 10 мин, порывы в срок и между сроками (в фигурных скобках) и направление, откуда дует ветер: С - северный, СВ - северо-восточный, В - восточный, ЮВ - юго-восточный, Ю - южный, ЮЗ - юго-западный, З - западный, СЗ - северо-западный.
Видимость - горизонтальная дальность видимости в метрах или километрах. При видимости от 1 до 10 км при отсутствии осадков обычно наблюдается дымка, при ухудшении видимости до 1 км и менее - туман. В сухую погоду видимость может ухудшаться дымом, пылью или мглою.
Явления - указаны атмосферные явления, наблюдавшиеся в срок или в последний час перед сроком; фигурными скобками обозначены явления, наблюдавшиеся между сроками (за 1-3 часа до срока); квадратными скобками обозначены град или гололедные отложения с указанием их диаметра в мм.
Облачность - указаны через наклонную черту общая и нижняя облачность в баллах и высота нижней границы облаков в метрах; квадратными скобками обозначены формы облаков: Ci - перистые, Cs - перисто-слоистые, Cc - перисто-кучевые, Ac - высококучевые, As - высокослоистые, Sc - слоисто-кучевые, Ns - слоисто-дождевые, Cu - кучевые, Cb - кучево-дождевые. Подробнее классификацию облаков см. в Атласе облаков (PDF).
T - Температура воздуха - температура, измеренная на высоте 2 м над землей.
Td - Температура точки росы - температура, при понижении до которой содержащийся в воздухе водяной пар достигнет насыщения.
f - Относительная влажность воздуха - влажноcть воздуха, измеренная на высоте 2 м над землей.
Te - Эффективная температура - температура, которую ощущает одетый по сезону человек в тени. Характеристика душности погоды. При расчете учитывается влияние влажности воздуха и скорости ветра на теплоощущения человека.
Tes - Эффективная температура на солнце - температура, которую ощущает человек, с поправкой на солнечный нагрев. Характеристика знойности погоды. Зависит от высоты солнца над горизонтом, облачности и скорости ветра. Ночью, в пасмурную погоду, а также при ветре 12 м/с и более поправка равна нулю.
P - Атмосферное давление - приведенное к уровню моря атмосферное давление.
Po - Атмосферное давление - измеренное на уровне метеостанции атмосферное давление.
Tmin - Минимальная температура - минимум температуры воздуха на высоте 2 м над землей.
Tmax - Максимальная температура - максимум температуры воздуха на высоте 2 м над землей.
R - Количество осадков - Количество выпавших осадков за период времени, мм. При наведении курсора мыши на число - период времени, за который выпало указанное количество осадков.
R24 - Количество осадков - Количество выпавших осадков за 24 часа, мм.
S - Снежный покров - Высота снежного покрова, см. При наведении курсора мыши на число - состояние снежного покрова и степень покрытия местности в баллах.